Time,TemperatureF,DewpointF,PressureIn,WindDirection,WindDirectionDegrees,WindSpeedMPH,WindSpeedGustMPH,Humidity,HourlyPrecipIn,Conditions,Clouds,dailyrainin,SolarRadiationWatts/m^2,SoftwareType,DateUTC
2013-06-24 00:03:00,63.0,50.0,-100.00,NE,52,1.0,3.0,62,-99.99,,,0.00,0.000000,,2013-06-24 06:03:00,
2013-06-24 00:12:00,63.0,50.0,-100.00,NE,52,1.0,3.0,62,-99.99,,,0.00,0.000000,,2013-06-24 06:12:00,
2013-06-24 00:43:00,60.0,52.0,-100.00,SSE,151,1.0,3.0,74,-99.99,,,0.00,0.000000,,2013-06-24 06:43:00,
2013-06-24 01:03:00,60.0,52.0,-100.00,SSE,151,1.0,3.0,74,-99.99,,,0.00,0.000000,,2013-06-24 07:03:00,
2013-06-24 01:13:00,60.0,52.0,-100.00,SSE,151,1.0,3.0,74,-99.99,,,0.00,0.000000,,2013-06-24 07:13:00,
2013-06-24 01:46:00,59.0,51.0,-100.00,NE,51,1.0,3.0,74,-99.99,,,0.00,0.000000,,2013-06-24 07:46:00,
2013-06-24 01:56:00,59.0,51.0,-100.00,NE,51,1.0,3.0,74,-99.99,,,0.00,0.000000,,2013-06-24 07:56:00,
2013-06-24 02:03:00,59.0,51.0,-100.00,NE,51,1.0,3.0,74,-99.99,,,0.00,0.000000,,2013-06-24 08:03:00,
2013-06-24 02:12:00,59.0,51.0,-100.00,NE,51,1.0,3.0,74,-99.99,,,0.00,0.000000,,2013-06-24 08:12:00,
2013-06-24 02:45:00,58.0,51.0,-100.00,SE,124,3.0,6.0,76,-99.99,,,0.00,0.000000,,2013-06-24 08:45:00,
2013-06-24 02:55:00,58.0,51.0,-100.00,SE,124,3.0,6.0,76,-99.99,,,0.00,0.000000,,2013-06-24 08:55:00,
2013-06-24 03:04:00,58.0,51.0,-100.00,SE,124,3.0,6.0,76,-99.99,,,0.00,0.000000,,2013-06-24 09:04:00,
2013-06-24 03:13:00,58.0,51.0,-100.00,SE,124,3.0,6.0,76,-99.99,,,0.00,0.000000,,2013-06-24 09:13:00,
2013-06-24 03:45:00,57.0,50.0,-100.00,South,173,1.0,3.0,75,-99.99,,,0.00,0.000000,,2013-06-24 09:45:00,
2013-06-24 03:58:00,57.0,50.0,-100.00,South,173,1.0,3.0,75,-99.99,,,0.00,0.000000,,2013-06-24 09:58:00,
2013-06-24 04:13:00,57.0,50.0,-100.00,South,173,1.0,3.0,75,-99.99,,,0.00,0.000000,,2013-06-24 10:13:00,
2013-06-24 04:47:00,54.0,50.0,-100.00,SE,132,2.0,3.0,83,-99.99,,,0.00,0.000000,,2013-06-24 10:47:00,
2013-06-24 05:02:00,54.0,50.0,-100.00,SE,132,2.0,3.0,83,-99.99,,,0.00,0.000000,,2013-06-24 11:02:00,
2013-06-24 05:56:00,55.0,47.0,-100.00,ESE,110,1.0,3.0,73,-99.99,,,0.00,0.000000,,2013-06-24 11:56:00,
2013-06-24 06:03:00,55.0,47.0,-100.00,ESE,110,1.0,3.0,73,-99.99,,,0.00,0.000000,,2013-06-24 12:03:00,
2013-06-24 06:46:00,56.0,48.0,-100.00,West,273,0.0,2.0,73,-99.99,,,0.00,12.090000,,2013-06-24 12:46:00,
2013-06-24 06:55:00,56.0,48.0,-100.00,West,273,0.0,2.0,73,-99.99,,,0.00,12.090000,,2013-06-24 12:55:00,
2013-06-24 07:03:00,56.0,48.0,-100.00,West,273,0.0,2.0,73,-99.99,,,0.00,12.090000,,2013-06-24 13:03:00,
2013-06-24 07:12:00,56.0,48.0,-100.00,West,273,0.0,2.0,73,-99.99,,,0.00,12.090000,,2013-06-24 13:12:00,
2013-06-24 07:57:00,55.0,51.0,-100.00,SSE,160,2.0,3.0,86,-99.99,,,0.00,51.020000,,2013-06-24 13:57:00,
2013-06-24 08:13:00,55.0,51.0,-100.00,SSE,160,2.0,3.0,86,-99.99,,,0.00,51.020000,,2013-06-24 14:13:00,
2013-06-24 08:44:00,58.0,51.0,-100.00,West,268,3.0,5.0,77,-99.99,,,0.00,150.619995,,2013-06-24 14:44:00,
2013-06-24 08:58:00,58.0,51.0,-100.00,West,268,3.0,5.0,77,-99.99,,,0.00,150.619995,,2013-06-24 14:58:00,
2013-06-24 09:12:00,58.0,51.0,-100.00,West,268,3.0,5.0,77,-99.99,,,0.00,150.619995,,2013-06-24 15:12:00,
2013-06-24 09:45:00,60.0,50.0,-100.00,SW,229,0.0,2.0,69,-99.99,,,0.00,139.119995,,2013-06-24 15:45:00,
2013-06-24 09:56:00,60.0,50.0,-100.00,SW,229,0.0,2.0,69,-99.99,,,0.00,139.119995,,2013-06-24 15:56:00,
2013-06-24 10:02:00,60.0,50.0,-100.00,SW,229,0.0,2.0,69,-99.99,,,0.00,139.119995,,2013-06-24 16:02:00,
2013-06-24 10:11:00,60.0,50.0,-100.00,SW,229,0.0,2.0,69,-99.99,,,0.00,139.119995,,2013-06-24 16:11:00,
2013-06-24 10:43:00,64.0,50.0,-100.00,NW,324,1.0,4.0,59,-99.99,,,0.00,567.500000,,2013-06-24 16:43:00,
2013-06-24 10:56:00,64.0,50.0,-100.00,NW,324,1.0,4.0,59,-99.99,,,0.00,567.500000,,2013-06-24 16:56:00,
2013-06-24 11:03:00,64.0,50.0,-100.00,NW,324,1.0,4.0,59,-99.99,,,0.00,567.500000,,2013-06-24 17:03:00,
2013-06-24 11:12:00,64.0,50.0,-100.00,NW,324,1.0,4.0,59,-99.99,,,0.00,567.500000,,2013-06-24 17:12:00,
2013-06-24 11:44:00,64.0,51.0,-100.00,WNW,300,3.0,6.0,63,-99.99,,,0.00,280.209991,,2013-06-24 17:44:00,
2013-06-24 11:57:00,64.0,51.0,-100.00,WNW,300,3.0,6.0,63,-99.99,,,0.00,280.209991,,2013-06-24 17:57:00,
2013-06-24 12:02:00,64.0,51.0,-100.00,WNW,300,3.0,6.0,63,-99.99,,,0.00,280.209991,,2013-06-24 18:02:00,
2013-06-24 12:13:00,64.0,51.0,-100.00,WNW,300,3.0,6.0,63,-99.99,,,0.00,280.209991,,2013-06-24 18:13:00,
2013-06-24 12:45:00,69.0,52.0,-100.00,NW,318,2.0,7.0,55,-99.99,,,0.00,923.950012,,2013-06-24 18:45:00,
2013-06-24 12:55:00,69.0,52.0,-100.00,NW,318,2.0,7.0,55,-99.99,,,0.00,923.950012,,2013-06-24 18:55:00,
2013-06-24 13:04:00,69.0,52.0,-100.00,NW,318,2.0,7.0,55,-99.99,,,0.00,923.950012,,2013-06-24 19:04:00,
2013-06-24 13:12:00,69.0,52.0,-100.00,NW,318,2.0,7.0,55,-99.99,,,0.00,923.950012,,2013-06-24 19:12:00,
2013-06-24 13:43:00,71.0,52.0,-100.00,NW,318,2.0,6.0,50,-99.99,,,0.00,1027.380005,,2013-06-24 19:43:00,
2013-06-24 13:55:00,71.0,52.0,-100.00,NW,318,2.0,6.0,50,-99.99,,,0.00,1027.380005,,2013-06-24 19:55:00,
2013-06-24 14:11:00,71.0,52.0,-100.00,NW,318,2.0,6.0,50,-99.99,,,0.00,1027.380005,,2013-06-24 20:11:00,
2013-06-24 14:44:00,64.0,55.0,-100.00,ESE,102,4.0,9.0,71,-99.99,,,0.00,668.609985,,2013-06-24 20:44:00,
2013-06-24 14:55:00,64.0,55.0,-100.00,ESE,102,4.0,9.0,71,-99.99,,,0.00,668.609985,,2013-06-24 20:55:00,
2013-06-24 15:02:00,64.0,55.0,-100.00,ESE,102,4.0,9.0,71,-99.99,,,0.00,668.609985,,2013-06-24 21:02:00,
2013-06-24 15:12:00,64.0,55.0,-100.00,ESE,102,4.0,9.0,71,-99.99,,,0.00,668.609985,,2013-06-24 21:12:00,
2013-06-24 15:45:00,69.0,54.0,-100.00,NW,306,2.0,6.0,59,-99.99,,,0.00,561.109985,,2013-06-24 21:45:00,
2013-06-24 15:54:00,69.0,54.0,-100.00,NW,306,2.0,6.0,59,-99.99,,,0.00,561.109985,,2013-06-24 21:54:00,
2013-06-24 16:03:00,69.0,54.0,-100.00,NW,306,2.0,6.0,59,-99.99,,,0.00,561.109985,,2013-06-24 22:03:00,
2013-06-24 16:13:00,69.0,54.0,-100.00,NW,306,2.0,6.0,59,-99.99,,,0.00,561.109985,,2013-06-24 22:13:00,
2013-06-24 16:46:00,69.0,55.0,-100.00,North,0,1.0,4.0,59,-99.99,,,0.00,290.670013,,2013-06-24 22:46:00,
2013-06-24 17:11:00,69.0,55.0,-100.00,North,0,1.0,4.0,59,-99.99,,,0.00,290.670013,,2013-06-24 23:11:00,
2013-06-24 17:44:00,68.0,54.0,-100.00,North,0,2.0,9.0,61,-99.99,,,0.00,279.630005,,2013-06-24 23:44:00,
2013-06-24 17:54:00,68.0,54.0,-100.00,North,0,2.0,9.0,61,-99.99,,,0.00,279.630005,,2013-06-24 23:54:00,
2013-06-24 18:02:00,68.0,54.0,-100.00,North,0,2.0,9.0,61,-99.99,,,0.00,279.630005,,2013-06-25 00:02:00,
2013-06-24 18:12:00,68.0,54.0,-100.00,North,0,2.0,9.0,61,-99.99,,,0.00,279.630005,,2013-06-25 00:12:00,
2013-06-24 19:44:00,60.0,57.0,-100.00,NNE,23,1.0,4.0,90,-99.99,,,0.00,108.199997,,2013-06-25 01:44:00,
2013-06-24 19:55:00,60.0,57.0,-100.00,NNE,23,1.0,4.0,90,-99.99,,,0.00,108.199997,,2013-06-25 01:55:00,
2013-06-24 20:02:00,60.0,57.0,-100.00,NNE,23,1.0,4.0,90,-99.99,,,0.00,108.199997,,2013-06-25 02:02:00,
2013-06-24 20:12:00,60.0,57.0,-100.00,NNE,23,1.0,4.0,90,-99.99,,,0.00,108.199997,,2013-06-25 02:12:00,
2013-06-24 20:43:00,59.0,57.0,-100.00,WNW,299,1.0,8.0,94,-99.99,,,0.00,41.959999,,2013-06-25 02:43:00,
2013-06-24 20:56:00,59.0,57.0,-100.00,WNW,299,1.0,8.0,94,-99.99,,,0.00,41.959999,,2013-06-25 02:56:00,
2013-06-24 21:12:00,59.0,57.0,-100.00,WNW,299,1.0,8.0,94,-99.99,,,0.00,41.959999,,2013-06-25 03:12:00,
2013-06-24 22:01:00,57.0,57.0,-100.00,ESE,116,2.0,4.0,100,-99.99,,,0.01,13.480000,,2013-06-25 04:01:00,
2013-06-24 22:11:00,57.0,57.0,-100.00,ESE,116,2.0,4.0,100,-99.99,,,0.01,13.480000,,2013-06-25 04:11:00,
2013-06-24 22:42:00,57.0,57.0,-100.00,SE,142,2.0,3.0,100,-99.99,,,0.01,0.230000,,2013-06-25 04:42:00,
2013-06-24 22:52:00,57.0,57.0,-100.00,SE,142,2.0,3.0,100,-99.99,,,0.01,0.230000,,2013-06-25 04:52:00,
2013-06-24 23:01:00,57.0,57.0,-100.00,SE,142,2.0,3.0,100,-99.99,,,0.01,0.230000,,2013-06-25 05:01:00,
2013-06-24 23:11:00,57.0,57.0,-100.00,SE,142,2.0,3.0,100,-99.99,,,0.01,0.230000,,2013-06-25 05:11:00,
2013-06-24 23:44:00,57.0,57.0,-100.00,ESE,102,1.0,2.0,100,-99.99,,,0.01,0.120000,,2013-06-25 05:44:00,
2013-06-24 23:52:00,57.0,57.0,-100.00,ESE,102,1.0,2.0,100,-99.99,,,0.01,0.120000,,2013-06-25 05:52:00,